| time (UTC) | temp C | wind direction | speed KPH | gust KPH | rain 1hr cm | rain 24hr cm | rain mn cm | humidity % | barometer mb |
| 20260504215423 | 22 | 9 | 11.3 | 20.9 | 0.00 | 0.00 | 0.00 | 48 | 1009.7 |
| 20260504214635 | 22 | 359 | 14.5 | 20.9 | 0.00 | 0.00 | 0.00 | 49 | 1009.8 |
| 20260504214131 | 22 | 14 | 16.1 | 24.1 | 0.00 | 0.00 | 0.00 | 50 | 1009.8 |
| 20260504213626 | 21 | 15 | 16.1 | 24.1 | 0.00 | 0.00 | 0.00 | 51 | 1009.8 |
| 20260504213114 | 22 | 23 | 14.5 | 22.5 | 0.00 | 0.00 | 0.00 | 51 | 1010.1 |
| 20260504212843 | 21 | 26 | 14.5 | 22.5 | 0.00 | 0.00 | 0.00 | 51 | 1010.1 |
| 20260504212425 | 21 | 20 | 12.9 | 20.9 | 0.00 | 0.00 | 0.00 | 52 | 1010.1 |
| 20260504211102 | 21 | 22 | 14.5 | 19.3 | 0.00 | 0.00 | 0.00 | 53 | 1010.2 |
| 20260504210602 | 21 | 359 | 14.5 | 20.9 | 0.00 | 0.00 | 0.00 | 54 | 1010.2 |
| 20260504210353 | 21 | 359 | 16.1 | 20.9 | 0.00 | 0.00 | 0.00 | 55 | 1010.1 |
| 20260504205852 | 21 | 359 | 16.1 | 20.9 | 0.00 | 0.00 | 0.00 | 55 | 1010.1 |
| 20260504205352 | 21 | 4 | 12.9 | 19.3 | 0.00 | 0.00 | 0.00 | 54 | 1010.1 |
| 20260504204603 | 21 | 348 | 12.9 | 19.3 | 0.00 | 0.00 | 0.00 | 54 | 1010.2 |
| 20260504204105 | 20 | 20 | 11.3 | 19.3 | 0.00 | 0.00 | 0.00 | 55 | 1010.2 |
| 20260504203606 | 20 | 16 | 11.3 | 17.7 | 0.00 | 0.00 | 0.00 | 55 | 1010.3 |
| 20260504203058 | 20 | 15 | 14.5 | 20.9 | 0.00 | 0.00 | 0.00 | 57 | 1010.3 |
| 20260504202554 | 19 | 20 | 16.1 | 20.9 | 0.00 | 0.00 | 0.00 | 59 | 1010.3 |
| 20260504202046 | 20 | 4 | 14.5 | 19.3 | 0.00 | 0.00 | 0.00 | 59 | 1010.4 |
| 20260504201857 | 19 | 4 | 12.9 | 19.3 | 0.00 | 0.00 | 0.00 | 59 | 1010.4 |
| 20260504200544 | 19 | 19 | 16.1 | 19.3 | 0.00 | 0.00 | 0.00 | 60 | 1010.5 |
| 20260504200039 | 18 | 9 | 16.1 | 19.3 | 0.00 | 0.00 | 0.00 | 60 | 1010.5 |
| 20260504195829 | 18 | 350 | 14.5 | 19.3 | 0.00 | 0.00 | 0.00 | 61 | 1010.5 |
| 20260504195032 | 18 | 9 | 14.5 | 19.3 | 0.00 | 0.00 | 0.00 | 61 | 1010.5 |
| 20260504194533 | 18 | 359 | 16.1 | 20.9 | 0.00 | 0.00 | 0.00 | 63 | 1010.5 |
| 20260504194031 | 18 | 4 | 16.1 | 20.9 | 0.00 | 0.00 | 0.00 | 62 | 1010.5 |
| 20260504193530 | 18 | 4 | 16.1 | 20.9 | 0.00 | 0.00 | 0.00 | 62 | 1010.7 |
| 20260504193028 | 18 | 359 | 16.1 | 20.9 | 0.00 | 0.00 | 0.00 | 64 | 1010.7 |
| 20260504192529 | 18 | 9 | 16.1 | 20.9 | 0.00 | 0.00 | 0.00 | 64 | 1010.7 |
| 20260504192030 | 18 | 359 | 14.5 | 19.3 | 0.00 | 0.00 | 0.00 | 64 | 1010.8 |
| 20260504191821 | 17 | 15 | 16.1 | 19.3 | 0.00 | 0.00 | 0.00 | 66 | 1010.8 |
| 20260504191029 | 17 | 9 | 17.7 | 20.9 | 0.00 | 0.00 | 0.00 | 66 | 1010.8 |
| 20260504190530 | 17 | 15 | 17.7 | 20.9 | 0.00 | 0.00 | 0.00 | 67 | 1010.9 |
| 20260504190030 | 17 | 355 | 14.5 | 20.9 | 0.00 | 0.00 | 0.00 | 66 | 1010.9 |
| 20260504185537 | 17 | 4 | 12.9 | 19.3 | 0.00 | 0.00 | 0.00 | 65 | 1010.9 |
| 20260504185029 | 17 | 13 | 14.5 | 19.3 | 0.00 | 0.00 | 0.00 | 66 | 1011.0 |
| 20260504184524 | 17 | 4 | 16.1 | 20.9 | 0.00 | 0.00 | 0.00 | 68 | 1011.0 |
| 20260504184023 | 17 | 9 | 17.7 | 20.9 | 0.00 | 0.00 | 0.00 | 67 | 1011.0 |
| 20260504183523 | 17 | 21 | 17.7 | 20.9 | 0.00 | 0.00 | 0.00 | 68 | 1011.0 |
| 20260504183020 | 17 | 9 | 16.1 | 20.9 | 0.00 | 0.00 | 0.00 | 67 | 1011.0 |
| 20260504182518 | 17 | 26 | 14.5 | 19.3 | 0.00 | 0.00 | 0.00 | 67 | 1011.0 |
| 20260504182308 | 17 | 14 | 12.9 | 19.3 | 0.00 | 0.00 | 0.00 | 67 | 1011.1 |
| 20260504181757 | 16 | 22 | 16.1 | 19.3 | 0.00 | 0.00 | 0.00 | 68 | 1011.1 |
| 20260504181013 | 16 | 15 | 16.1 | 20.9 | 0.00 | 0.00 | 0.00 | 69 | 1011.1 |
| 20260504180515 | 16 | 4 | 16.1 | 20.9 | 0.00 | 0.00 | 0.00 | 69 | 1011.0 |
| 20260504180012 | 16 | 9 | 16.1 | 22.5 | 0.00 | 0.00 | 0.00 | 69 | 1011.0 |
| 20260504175514 | 16 | 9 | 16.1 | 22.5 | 0.00 | 0.00 | 0.00 | 71 | 1011.0 |
| 20260504175009 | 16 | 4 | 14.5 | 17.7 | 0.00 | 0.00 | 0.00 | 71 | 1011.0 |
| 20260504174510 | 16 | 13 | 14.5 | 17.7 | 0.00 | 0.00 | 0.00 | 71 | 1011.0 |
| 20260504174008 | 16 | 359 | 14.5 | 19.3 | 0.00 | 0.00 | 0.00 | 71 | 1011.0 |
| 20260504173503 | 16 | 359 | 16.1 | 19.3 | 0.00 | 0.00 | 0.00 | 72 | 1011.1 |
| 20260504173004 | 15 | 26 | 16.1 | 19.3 | 0.00 | 0.00 | 0.00 | 73 | 1011.1 |
| 20260504172502 | 15 | 4 | 16.1 | 19.3 | 0.00 | 0.00 | 0.00 | 73 | 1011.1 |
| 20260504172023 | 15 | 15 | 14.5 | 17.7 | 0.00 | 0.00 | 0.00 | 73 | 1011.0 |
| 20260504170432 | 15 | 9 | 11.3 | 16.1 | 0.00 | 0.00 | 0.00 | 72 | 1010.9 |
| 20260504160409 | 14 | 355 | 6.4 | 8.0 | 0.00 | 0.00 | 0.00 | 74 | 1010.7 |
| 20260504150844 | 14 | 52 | 1.6 | 4.8 | 0.00 | 0.00 | 0.00 | 72 | 1010.3 |
| 20260504150334 | 14 | 127 | 1.6 | 3.2 | 0.00 | 0.00 | 0.00 | 72 | 1010.2 |
| 20260504141319 | 12 | 42 | 1.6 | 3.2 | 0.00 | 0.00 | 0.00 | 83 | 1009.9 |
| 20260504141053 | 12 | 359 | 1.6 | 3.2 | 0.00 | 0.00 | 0.00 | 83 | 1009.9 |
| 20260504140310 | 12 | 353 | 1.6 | 3.2 | 0.00 | 0.00 | 0.00 | 84 | 1009.8 |
| 20260504130747 | 11 | 233 | 3.2 | 4.8 | 0.00 | 0.00 | 0.00 | 85 | 1009.2 |
| 20260504130234 | 11 | 248 | 3.2 | 6.4 | 0.00 | 0.00 | 0.00 | 85 | 1009.1 |
| 20260504120202 | 11 | 256 | 0.0 | 1.6 | 0.00 | 0.00 | 0.00 | 84 | 1008.8 |
| 20260504110614 | 12 | 256 | 0.0 | 0.0 | 0.00 | 0.00 | 0.00 | 83 | 1008.7 |
| 20260504100533 | 13 | 256 | 0.0 | 1.6 | 0.00 | 0.00 | 0.00 | 79 | 1008.5 |
| 20260504081939 | 15 | 233 | 1.6 | 3.2 | 0.00 | 0.00 | 0.00 | 74 | 1008.6 |
| 20260504081439 | 15 | 228 | 0.0 | 1.6 | 0.00 | 0.00 | 0.00 | 73 | 1008.6 |
| 20260504080937 | 15 | 219 | 0.0 | 3.2 | 0.00 | 0.00 | 0.00 | 72 | 1008.6 |
| 20260504080431 | 15 | 217 | 1.6 | 3.2 | 0.00 | 0.00 | 0.00 | 73 | 1008.6 |
| 20260504070347 | 16 | 359 | 1.6 | 3.2 | 0.00 | 0.00 | 0.00 | 68 | 1008.5 |
| 20260504070119 | 16 | 359 | 1.6 | 3.2 | 0.00 | 0.00 | 0.00 | 71 | 1008.5 |
| 20260504050317 | 19 | 217 | 3.2 | 6.4 | 0.00 | 0.00 | 0.00 | 57 | 1008.6 |
| 20260504045819 | 19 | 212 | 3.2 | 6.4 | 0.00 | 0.00 | 0.00 | 58 | 1008.6 |
| 20260504045335 | 19 | 226 | 3.2 | 4.8 | 0.00 | 0.00 | 0.00 | 58 | 1008.6 |
| 20260504044321 | 20 | 9 | 1.6 | 4.8 | 0.00 | 0.00 | 0.00 | 56 | 1008.3 |
| 20260504043817 | 20 | 9 | 0.0 | 3.2 | 0.00 | 0.00 | 0.00 | 55 | 1008.3 |
| 20260504043320 | 20 | 9 | 0.0 | 3.2 | 0.00 | 0.00 | 0.00 | 52 | 1008.2 |
| 20260504043051 | 21 | 9 | 1.6 | 3.2 | 0.00 | 0.00 | 0.00 | 51 | 1008.2 |
| 20260504042306 | 21 | 9 | 1.6 | 3.2 | 0.00 | 0.00 | 0.00 | 54 | 1008.2 |
| 20260504041802 | 21 | 9 | 1.6 | 3.2 | 0.00 | 0.00 | 0.00 | 51 | 1008.2 |
| 20260504041300 | 22 | 9 | 1.6 | 3.2 | 0.00 | 0.00 | 0.00 | 43 | 1008.2 |
| 20260504041043 | 22 | 9 | 1.6 | 3.2 | 0.00 | 0.00 | 0.00 | 41 | 1008.2 |
| 20260504040303 | 22 | 9 | 1.6 | 3.2 | 0.00 | 0.00 | 0.00 | 41 | 1008.1 |
| 20260504035802 | 22 | 9 | 1.6 | 3.2 | 0.00 | 0.00 | 0.00 | 42 | 1008.1 |
| 20260504035304 | 23 | 31 | 1.6 | 3.2 | 0.00 | 0.00 | 0.00 | 40 | 1008.1 |
| 20260504034802 | 23 | 58 | 3.2 | 6.4 | 0.00 | 0.00 | 0.00 | 37 | 1008.0 |
| 20260504034300 | 23 | 65 | 4.8 | 8.0 | 0.00 | 0.00 | 0.00 | 35 | 1008.0 |
| 20260504033805 | 23 | 57 | 4.8 | 8.0 | 0.00 | 0.00 | 0.00 | 35 | 1008.0 |
| 20260504033304 | 23 | 78 | 3.2 | 8.0 | 0.00 | 0.00 | 0.00 | 34 | 1007.8 |
| 20260504032806 | 24 | 71 | 3.2 | 8.0 | 0.00 | 0.00 | 0.00 | 35 | 1007.8 |
| 20260504032304 | 24 | 79 | 3.2 | 6.4 | 0.00 | 0.00 | 0.00 | 33 | 1007.8 |
| 20260504031801 | 24 | 59 | 1.6 | 4.8 | 0.00 | 0.00 | 0.00 | 35 | 1007.7 |
| 20260504031300 | 25 | 13 | 1.6 | 6.4 | 0.00 | 0.00 | 0.00 | 38 | 1007.7 |
| 20260504030802 | 25 | 111 | 3.2 | 9.7 | 0.00 | 0.00 | 0.00 | 37 | 1007.7 |
| 20260504030302 | 25 | 58 | 4.8 | 9.7 | 0.00 | 0.00 | 0.00 | 33 | 1007.8 |
| 20260504030053 | 25 | 46 | 4.8 | 8.0 | 0.00 | 0.00 | 0.00 | 31 | 1007.9 |
| 20260504025304 | 26 | 99 | 6.4 | 8.0 | 0.00 | 0.00 | 0.00 | 32 | 1007.9 |
| 20260504025116 | 26 | 57 | 4.8 | 8.0 | 0.00 | 0.00 | 0.00 | 31 | 1007.8 |
| 20260504023801 | 26 | 69 | 4.8 | 6.4 | 0.00 | 0.00 | 0.00 | 34 | 1007.8 |
| 20260504023302 | 26 | 4 | 4.8 | 8.0 | 0.00 | 0.00 | 0.00 | 34 | 1007.8 |
| 20260504023049 | 26 | 4 | 4.8 | 8.0 | 0.00 | 0.00 | 0.00 | 31 | 1007.8 |
| 20260504022301 | 26 | 350 | 4.8 | 11.3 | 0.00 | 0.00 | 0.00 | 33 | 1007.8 |
| 20260504021749 | 26 | 65 | 4.8 | 11.3 | 0.00 | 0.00 | 0.00 | 30 | 1007.8 |
| 20260504021523 | 26 | 343 | 8.0 | 16.1 | 0.00 | 0.00 | 0.00 | 33 | 1007.8 |
| 20260504020736 | 26 | 50 | 8.0 | 16.1 | 0.00 | 0.00 | 0.00 | 29 | 1007.8 |
| 20260504020234 | 26 | 59 | 6.4 | 11.3 | 0.00 | 0.00 | 0.00 | 29 | 1007.8 |
| 20260504015732 | 26 | 62 | 3.2 | 9.7 | 0.00 | 0.00 | 0.00 | 35 | 1007.8 |
| 20260504015234 | 27 | 345 | 4.8 | 8.0 | 0.00 | 0.00 | 0.00 | 34 | 1007.8 |
| 20260504014735 | 27 | 350 | 6.4 | 11.3 | 0.00 | 0.00 | 0.00 | 30 | 1008.0 |
| 20260504014514 | 27 | 22 | 6.4 | 14.5 | 0.00 | 0.00 | 0.00 | 28 | 1008.0 |
| 20260504013731 | 27 | 57 | 9.7 | 19.3 | 0.00 | 0.00 | 0.00 | 28 | 1008.0 |
| 20260504013516 | 27 | 48 | 11.3 | 19.3 | 0.00 | 0.00 | 0.00 | 28 | 1008.1 |
| 20260504012730 | 27 | 78 | 8.0 | 19.3 | 0.00 | 0.00 | 0.00 | 27 | 1008.1 |
| 20260504012508 | 27 | 43 | 6.4 | 19.3 | 0.00 | 0.00 | 0.00 | 30 | 1008.1 |
| 20260504011705 | 27 | 30 | 6.4 | 16.1 | 0.00 | 0.00 | 0.00 | 29 | 1008.2 |
| 20260504011441 | 27 | 47 | 4.8 | 9.7 | 0.00 | 0.00 | 0.00 | 30 | 1008.2 |
| 20260504010644 | 27 | 53 | 6.4 | 11.3 | 0.00 | 0.00 | 0.00 | 31 | 1008.2 |
| 20260504010145 | 27 | 359 | 8.0 | 16.1 | 0.00 | 0.00 | 0.00 | 31 | 1008.2 |
| 20260504005705 | 27 | 36 | 9.7 | 16.1 | 0.00 | 0.00 | 0.00 | 30 | 1008.2 |
| 20260504004640 | 27 | 359 | 6.4 | 11.3 | 0.00 | 0.00 | 0.00 | 29 | 1008.3 |
| 20260504004431 | 27 | 27 | 6.4 | 11.3 | 0.00 | 0.00 | 0.00 | 30 | 1008.3 |
| 20260504003637 | 27 | 22 | 6.4 | 14.5 | 0.00 | 0.00 | 0.00 | 28 | 1008.3 |
| 20260504003137 | 27 | 55 | 6.4 | 14.5 | 0.00 | 0.00 | 0.00 | 29 | 1008.4 |
| 20260504002638 | 27 | 21 | 4.8 | 8.0 | 0.00 | 0.00 | 0.00 | 31 | 1008.4 |
| 20260504002135 | 27 | 14 | 6.4 | 9.7 | 0.00 | 0.00 | 0.00 | 32 | 1008.4 |
| 20260504001631 | 27 | 34 | 8.0 | 9.7 | 0.00 | 0.00 | 0.00 | 32 | 1008.5 |
| 20260504001130 | 27 | 42 | 8.0 | 9.7 | 0.00 | 0.00 | 0.00 | 31 | 1008.5 |
| 20260504000915 | 27 | 344 | 8.0 | 11.3 | 0.00 | 0.00 | 0.00 | 31 | 1008.5 |
| 20260504000129 | 27 | 359 | 8.0 | 11.3 | 0.00 | 0.00 | 0.00 | 31 | 1008.7 |
| 20260503235918 | 27 | 336 | 8.0 | 11.3 | 0.00 | 0.00 | 0.00 | 29 | 1008.7 |
| 20260503235129 | 27 | 359 | 8.0 | 12.9 | 0.00 | 0.00 | 0.00 | 31 | 1008.7 |
| 20260503234919 | 27 | 340 | 8.0 | 16.1 | 0.00 | 0.00 | 0.00 | 32 | 1008.8 |
| 20260503234130 | 27 | 26 | 8.0 | 16.1 | 0.00 | 0.00 | 0.00 | 31 | 1008.8 |
| 20260503233628 | 27 | 352 | 8.0 | 12.9 | 0.00 | 0.00 | 0.00 | 32 | 1008.8 |
| 20260503233117 | 27 | 16 | 6.4 | 9.7 | 0.00 | 0.00 | 0.00 | 32 | 1009.0 |
| 20260503232613 | 27 | 9 | 4.8 | 9.7 | 0.00 | 0.00 | 0.00 | 32 | 1009.0 |
| 20260503232114 | 27 | 325 | 6.4 | 8.0 | 0.00 | 0.00 | 0.00 | 31 | 1009.0 |
| 20260503231612 | 26 | 9 | 6.4 | 8.0 | 0.00 | 0.00 | 0.00 | 32 | 1009.3 |
| 20260503231103 | 26 | 355 | 6.4 | 8.0 | 0.00 | 0.00 | 0.00 | 33 | 1009.3 |
| 20260503230604 | 26 | 359 | 6.4 | 8.0 | 0.00 | 0.00 | 0.00 | 33 | 1009.3 |
| 20260503225604 | 26 | 359 | 6.4 | 9.7 | 0.00 | 0.00 | 0.00 | 34 | 1009.4 |
| 20260503225347 | 26 | 9 | 6.4 | 9.7 | 0.00 | 0.00 | 0.00 | 34 | 1009.4 |
| 20260503224603 | 26 | 9 | 6.4 | 11.3 | 0.00 | 0.00 | 0.00 | 37 | 1009.7 |
| 20260503224101 | 26 | 9 | 8.0 | 11.3 | 0.00 | 0.00 | 0.00 | 36 | 1009.7 |
| 20260503223602 | 26 | 4 | 8.0 | 11.3 | 0.00 | 0.00 | 0.00 | 35 | 1009.6 |
| 20260503223101 | 26 | 355 | 8.0 | 11.3 | 0.00 | 0.00 | 0.00 | 35 | 1009.8 |
| 20260503222602 | 25 | 359 | 9.7 | 14.5 | 0.00 | 0.00 | 0.00 | 36 | 1009.8 |
| 20260503222355 | 25 | 9 | 9.7 | 14.5 | 0.00 | 0.00 | 0.00 | 37 | 1010.0 |
| 20260503221557 | 25 | 4 | 9.7 | 14.5 | 0.00 | 0.00 | 0.00 | 36 | 1010.0 |
| 20260503221050 | 25 | 9 | 9.7 | 14.5 | 0.00 | 0.00 | 0.00 | 36 | 1010.0 |
| 20260503220543 | 25 | 19 | 9.7 | 16.1 | 0.00 | 0.00 | 0.00 | 37 | 1010.2 |
| 20260503220042 | 25 | 348 | 9.7 | 16.1 | 0.00 | 0.00 | 0.00 | 38 | 1010.2 |
| 20260503215911 | 25 | 4 | 9.7 | 14.5 | 0.00 | 0.00 | 0.00 | 37 | 1010.2 |